Regional Weather Roundup
Issued by NWS Grand Forks, ND

Home | Current Version | Previous Version | Text Only | Print | Product List | Glossary Off
Versions: 1 2 3 4 5 6 7 8 9 10 11 12 13 14 15 16 17 18 19 20 21 22 23 24 25 26 27 28 29 30 31 32 33 34 35 36 37 38 39 40 41 42 43 44 45 46 47 48 49 50

000
ASUS43 KFGF 241410
RWRFGF
PRAIRIE TO PINES  WEATHER ROUNDUP
NATIONAL WEATHER SERVICE EASTERN NORTH DAKOTA/GRAND FORKS ND
900 AM CDT TUE MAY 24 2016

 **SATELLITE DATA USED TO AUGMENT SKY COVER AT AUTOMATED STATIONS**
 *****  WEATHER ACROSS EASTERN NORTH DAKOTA  *****

CITY           SKY/WX    TMP DP  RH WIND       PRES   REMARKS
GRAND FORKS    MOSUNNY   66  54  65 CALM      29.79S
GRAND FRKS AFB SUNNY     63  56  77 N9        29.81R
GRAND FRKS NWS   N/A     64 N/A N/A VRB2        N/A
DEVILS LAKE    SUNNY     65  47  52 SW6       29.85R
FARGO          PTSUNNY   68  50  52 SE14      29.80S
WAHPETON ARPT  SUNNY     70  46  43 NE12G17   29.84R
$$

 ***** WEATHER ACROSS CENTRAL AND WESTERN NORTH DAKOTA  *****

CITY           SKY/WX    TMP DP  RH WIND       PRES   REMARKS
BISMARCK       SUNNY     59  45  59 SW5       29.87R
MINOT          SUNNY     62  44  51 W5        29.85R
JAMESTOWN      SUNNY     64  51  62 S5        29.83R
MINOT AFB      SUNNY     59  44  57 W3        29.85R
GARRISON         N/A     60  45  57 NW8       29.87R
WILLISTON      MOSUNNY   55  43  63 SW8       29.87R
DICKINSON      SUNNY     55  42  61 NW9       29.88R
HETTINGER      SUNNY     58  43  57 NW10      29.91R
$$

 *****  OTHER AIRPORT OBSERVATIONS IN OUR AREA  *****

CITY           SKY/WX    TMP DP  RH WIND       PRES   REMARKS
WALHALLA       FAIR      63  48  59 W3        29.83S
GRAFTON AIRPOR FAIR      64  55  72 N8        29.82F
VALLEY CITY AR FAIR      63  59  88 S5        29.85R
CANDO          FAIR      63  45  51 E3        29.86R
CAVALIER APRT  LGT RAIN  61  50  67 NE8       29.83R
GWINNER        FAIR      66  52  59 SE14      29.85S
SHEYENNE NWR     N/A     67  51  56 SE12      29.95S
ROLLA          FAIR      63  41  45 N5        29.85S
 ***** THE ABOVE OBSERVATIONS ARE NON NWS ARE NOT QUALITY
       CONTROLLED AND MAY MIS-REPORT RAIN FOR SNOW...
$$

  *****  WEATHER ACROSS NORTHERN MINNESOTA  *****

CITY           SKY/WX    TMP DP  RH WIND       PRES   REMARKS
FLAG ISLAND    CLOUDY    63  54  72 SE5       29.80S
WARROAD        CLOUDY    63  52  67 W7        29.84R
ROSEAU         CLOUDY    63  54  72 CALM      29.84R
HALLOCK        CLOUDY    61  55  82 N5        29.83R
THF RVR FALLS  CLOUDY    61  48  63 NW9       29.83R
BAUDETTE       PTSUNNY   63  50  62 CALM      29.81R
WASKISH        CLOUDY    63  54  72 SW12      29.85R
CROOKSTON      CLOUDY    63  55  77 E5        29.82R
STEPHEN NDAWN    N/A     63  55  77 N9          N/A
GREENBUSH NDAW   N/A     57  54  88 NW10        N/A
$$
  *****  WEATHER ACROSS CENTRAL AND WEST MINNESOTA  *****

CITY           SKY/WX    TMP DP  RH WIND       PRES   REMARKS
FOSSTON        TSTM      55  50  82 NE8       29.85S
BEMIDJI        PTSUNNY   63  51  65 NW10      29.86R
PARK RAPIDS    SUNNY     65  54  67 NW5       29.86S
ELBOW LAKE     PTSUNNY   65  60  85 NE14G22   29.84S
WADENA         SUNNY     64  52  63 SE7       29.85F
DETROIT LAKES  MOSUNNY   63  52  67 NE5       29.88R
MOORHEAD       LGT RAIN  66  52  59 SE13      29.83S
FERGUS FALLS   SUNNY     66  52  59 E12G18    29.82R
MORRIS MN      SUNNY     70  57  64 E10       29.83R
STAPLES        MOSUNNY   64  52  63 CALM      29.86R
$$
  *****  WEATHER ELSEWHERE ACROSS MINNESOTA  *****

CITY           SKY/WX    TMP DP  RH WIND       PRES   REMARKS
DULUTH         PTSUNNY   60  58  92 NE5       29.85F
INTRNTL FALLS  CLOUDY    63  59  87 SW3       29.83R
ELY            LGT RAIN  57  55  94 CALM      29.84F
CLOQUET        MOSUNNY   63  61  94 E7        29.85S
WHEATON        SUNNY     70  61  73 NE14      29.85R
BRAINERD       MOSUNNY   65  57  75 E3        29.84S
HIBBING        CLOUDY    62  56  80 SE6       29.84F
ALEXANDRIA     LGT RAIN  66  58  75 E10       29.86S
SAINT CLOUD    PTSUNNY   66  62  87 NW9       29.87
MINNEAPOLIS    PTSUNNY   71  61  70 W10       29.86R
$$

  *****  WEATHER ACROSS SOUTH DAKOTA  *****

CITY           SKY/WX    TMP DP  RH WIND       PRES   REMARKS
SIOUX FALLS    CLOUDY    65  61  87 SW8       29.85S
BROOKINGS      NOT AVBL
WATERTOWN      MOSUNNY   66  54  65 E8        29.85S
HURON          SUNNY     63  57  81 W3        29.83R
SISSETON         N/A     68  49  50 NE10G20   29.85R
ABERDEEN       SUNNY     66  50  56 E9        29.86R
MITCHELL       SUNNY     65  59  81 S6        29.83F
PIERRE         SUNNY     59  49  69 E10       29.85R
MOBRIDGE       SUNNY     59  47  64 NW6       29.87R
RAPID CITY     SUNNY     59  36  42 N9        29.92R
$$

  *****  SOME WEATHER IN NEARBY STATES *****

CITY           SKY/WX    TMP DP  RH WIND       PRES   REMARKS
GLASGOW MT     CLOUDY    51  43  74 W17       29.84R
GREAT FALLS MT CLOUDY    43  41  93 W6        29.91S
CHEYENNE WY    CLOUDY    49  41  74 CALM      29.97S
SCOTTSBLUFF NE SUNNY     51  44  77 CALM      29.94R
OMAHA NE       CLOUDY    65  62  90 SE6       29.89F
DES MOINES IA  CLOUDY    67  61  81 SE6       29.91F
DAVENPORT IA   SUNNY     73  57  57 S10       29.96R
CHICAGO IL     MOSUNNY   72  53  51 SW12      29.99F
EAU CLAIRE WI  CLOUDY    68  62  81 S7        29.86R
LA CROSSE WI   CLOUDY    70  57  63 S9        29.89R
$$

  *****  SOME NATIONAL WEATHER *****

CITY           SKY/WX    TMP DP  RH WIND       PRES   REMARKS
LA GUARDIA NY  LGT RAIN  62  62 100 NE6       29.92R
RALEIGH NC     MOSUNNY   69  57  65 W5        30.12S
ATLANTA GA     MOSUNNY   70  54  56 E3        30.16R
NEW ORLEANS LA MOSUNNY   81  69  67 SE9       30.07R
OKLAHOMA CITY  MOSUNNY   74  67  78 S16G26    29.88R
ALBUQUERQUE NM SUNNY     62  23  22 CALM      30.02R
SALT LAKE CITY PTSUNNY   56  40  55 SW10      29.80R
LOS ANGELES CA PTSUNNY   59  52  77 NE6       29.95R
BOISE ID       MOSUNNY   49  41  74 SW3       29.86R
SEATTLE WA     PTSUNNY   56  49  77 N5        29.96R
$$

*** WEATHER ACROSS MANITOBA...SASKATCHEWAN AND ONTARIO ***
                ***ONTARIO***

CITY           SKY/WX    TMP DP  RH WIND       PRES   REMARKS
GERALDTON      CLOUDY    54  46  76 N10G17    29.94R
THUNDER BAY    CLOUDY    63  61  94 NW5       29.86S FOG
SIOUX LOOKOUT  CLOUDY    57  52  82 NE8       29.88R
TORONTO        MOSUNNY   72  45  37 VRB2      29.99F
BIG TROUT LK   CLOUDY    37  34  87 NE6       30.08R
PICKLE LAKE    PTSUNNY   43  37  81 NE6       30.00R
DRYDEN         SUNNY     61  54  77 E12       29.85R
KENORA         PTSUNNY   68  50  52 W5        29.83R
$$
                *** MANITOBA***

CITY           SKY/WX    TMP DP  RH WIND       PRES   REMARKS
BRANDON        MOSUNNY   61  45  55 W5        29.83R
DAUPHIN        CLOUDY    54  50  87 NW3       29.84R
ISLAND LAKE    CLOUDY    39  37  93 NE9       30.04
PILOT MOUND      N/A     59  46  63 NW3         N/A
THE PAS        CLOUDY    43  37  81 E10G20    29.97R
THOMPSON       FLURRIES  34  30  86 NE9       30.10S
WINNIPEG       PTSUNNY   59  48  67 W7        29.80R
LYNN LAKE      CLOUDY    36  34  93 SE9       30.04S
CHURCHILL      CLOUDY    30  23  74 N12       30.17R WCI  21
GILLAM         PTSUNNY   28  23  80 N9        30.16S WCI  20
$$
                ***SASKATCHEWAN***

CITY           SKY/WX    TMP DP  RH WIND       PRES   REMARKS
ESTEVAN        PTSUNNY   54  45  71 S14       29.83R
KINDERSLEY     CLOUDY    48  46  93 N14G20    29.81R
LLOYDMINSTER   CLOUDY    46  45  93 NE7       29.88R
PRINCE ALBERT  CLOUDY    46  45  93 E15       29.88R
REGINA         MOSUNNY   54  45  71 S9        29.77R
YORKTON        SUNNY     54  46  76 SE7       29.80R
N. BATTLEFORD  CLOUDY    50  48  93 NE10      29.87R
LA RONGE       CLOUDY    46  41  81 NE8       29.96R
SASKATOON      LGT RAIN  48  48 100 NE16G23   29.82R
SWIFT CURRENT  CLOUDY    48  46  93 MISG      29.77R
$$
NOTE: THESE ARE AUTOMATED STATIONS WITH LIMITED QUALITY CONTROL
      "FAIR" INDICATES FEW OR NO CLOUDS BELOW 12,000 FEET WITH NO
      SIGNIFICANT WEATHER AND/OR OBSTRUCTIONS TO VISIBILITY.
      SKY/WX - SKY CONDITION AND SIGNIFICANT WEATHER.
      TMP - AIR TEMPERATURE.    DP   - DEWPOINT TEMPERATURE.
      RH  - RELATIVE HUMIDITY.  PRES - PRESSURE.
      HX  - HEAT INDEX.         WCI  - WIND CHILL INDEX.
$



USA.gov is the U.S. government's official web portal to all federal, state and local government web resources and services.